Regional Weather Roundup
Issued by NWS

Home | Current Version | Previous Version | Text Only | Print | Product List | Glossary On
Versions: 1 2 3 4 5 6 7 8 9 10 11 12 13 14 15 16 17 18 19 20 21 22 23 24 25 26 27 28 29 30 31 32 33 34 35 36 37 38 39 40 41 42 43 44 45 46 47 48 49 50
000
ASUS44 KJAN 260410
RWRMS

MISSISSIPPI HOURLY WEATHER ROUNDUP
NATIONAL WEATHER SERVICE JACKSON MS
1000 PM CST TUE NOV 25 2014

NOTE: "FAIR: INDICATES FEW OR NO CLOUDS BELOW 12,000 FEET WITH NO
SIGNIFICANT WEATHER AND/OR OBSTRUCTIONS TO VISIBILITY.

MSZ001>002-007>008-010>013-018>021-025>028-034>036-260500-
NORTHWEST MISSISSIPPI

CITY           SKY/WX    TMP DP  RH WIND       PRES   REMARKS
CLARKSDALE     FAIR      36  32  87 CALM      30.22F
CLEVELAND      FAIR      35  30  84 CALM      30.21F
GREENWOOD      CLEAR     30  27  88 CALM      30.22F
GREENVILLE     CLEAR     35  31  85 SE3       30.21F
GRENADA        FAIR      30  30 100 CALM      30.22F
OLIVE BRANCH   CLEAR     32  32 100 CALM      30.20F
OXFORD         FAIR      27  25  93 CALM      30.21F
TUNICA         CLEAR     34  32  93 CALM      30.23S
$$

MSZ003>006-009-014>017-022>024-029>033-037>039-260500-
NORTHEAST MISSISSIPPI

CITY           SKY/WX    TMP DP  RH WIND       PRES   REMARKS
COLUMBUS AFB   PTCLDY    39  27  61 NW5       30.20R
CORINTH        FAIR      34  27  75 NW6       30.18F WCI  29
GOLDN TRIANGLE PTCLDY    39  27  60 NW6       30.19S WCI  35
STARKVILLE     FAIR      34  30  86 CALM      30.20S
TUPELO         CLEAR     39  25  57 N5        30.19F
$$

MSZ040-058-260500-
CENTRAL MISSISSIPPI

CITY           SKY/WX    TMP DP  RH WIND       PRES   REMARKS
JACKSON INTL   CLEAR     34  28  79 CALM      30.21F
JACKSON HAWKNS CLEAR     36  29  75 CALM      30.22F
MERIDIAN KEY   MOCLDY    41  30  65 NW3       30.19F
MERIDIAN NAS   CLOUDY    43  31  62 NW9       30.19S
RAYMOND        FAIR      32  27  80 MISG      30.22F
VICKSBURG      CLEAR     32  30  92 CALM      30.22F
$$

MSZ059>079-260500-
SOUTH MISSISSIPPI

CITY           SKY/WX    TMP DP  RH WIND       PRES   REMARKS
BROOKHAVEN     FAIR      39  32  75 CALM      30.23F
HATTIESBURG    MOCLDY    46  32  58 NW5       30.22R
MCCOMB         CLEAR     39  30  70 NW3       30.22S
NATCHEZ        CLEAR     34  28  80 S3        30.24S
PINE BELT      MOCLDY    43  28  56 NW5       30.21R
$$

MSZ080>082-260500-
COASTAL MISSISSIPPI

CITY           SKY/WX    TMP DP  RH WIND       PRES   REMARKS
BILOXI         CLOUDY    50  31  47 N12       30.17S
PASCAGOULA     CLOUDY    50  31  48 N8        30.17R
GULFPORT       CLOUDY    49  31  49 NW13      30.17S
$$


USA.gov is the U.S. government's official web portal to all federal, state and local government web resources and services.